STARLINK-35065, 65441

Orbit data source: Space-Track

STARLINK-35065, 65441 is a payload satellite owned by SpaceX/Seattle (US) in SSO that was launched on Wed, 03 Sep 2025 UTC via an FALCON 9 launch vehicle from the Air Force Western Test Range (AFWTR). Payload-class satellites include a variety of spacecraft equipped with specific instruments for various scientific and technological missions. These include communications satellites like Starlink; space stations such as the ISS; scientific satellites like the Hubble; Earth observation satellites from companies like Planet Labs, Umbra, and HawkEye 360; GPS; miniature CubeSats for education and research; and military/defense satellites.

Not visible in the next 10 days
Identifier
65441, 2025-194H
Orbit
SSO
Country
Flag of USUS
Related business
Manufacturer
SpaceX/Seattle
Mission
Operational spacecraft
Bus & Motor
STARLINK V2MO, Unknown motor
Mass
575 kg wet, ~530 kg dry
Launch date (UTC)
2025-09-03 (2 weeks ago)
Launch vehicle
FALCON 9
Launch site
Air Force Western Test Range (AFWTR)
Object type
Payload
Rocket body
Debris
Shape & HBR
Unknown
Radar Cross Section
RCS unknown

Expand to show TLE details & history
Last TLE update: 20 hours ago

TLE from 20 hours ago
0 STARLINK-35065
1 65441U 25194H   25259.58337963 -.01859607  00000-0 -15258-1 0  9998
2 65441  97.5986 111.0598 0001869  78.2713 136.5572 15.73632960  2556
Epoch: 2025-09-16T14:00Z
TLE epoch observation values (Epoch: 2025-09-16T14:00:04Z)
Latitude
-34.7722°
Longitude
79.98696°
Altitude
362.708 km
Speed
7.69 km/s
True Right ascension
19h 03m 06s
True Declination
-34° 36' 07"
Sunlit
Object was in partial shadow at epoch
Visualization orbit readout
Latitude
Unknown
Longitude
Unknown
Altitude
Unknown
Speed
Unknown
Apparent Right ascension
Unknown
Apparent Declination
Unknown
Sunlit
N/A
Visualization observer readout
Local Sidereal Time
02:55:21
Azimuth
Unknown
Elevation
Unknown
Doppler factor
Unknown
Orbital elements
Apogee altitude
346.684 km
Perigee altitude
344.171 km
Semi-major axis
6,723.564 km
Eccentricity
0.00019
Inclination
97.5986°
RAAN
111.0598°
Arg. of periapsis
78.2713°
True anomaly
136.57192°
Mean anomaly
136.5572°
Eccentric anomaly
136.56456°
Mean motion
3.9368 °/min
Orbital period
91.44 mins
BSTAR
-0.015258
Loading maneuver chart data...
Computing Atmospheric mass density...
Loading historical data...
Loading historical data...
Loading historical data...
Loading historical data...
Loading historical data...
Loading historical data...
Loading historical data...

Documentation

Showing up to 5 results
|